Flag for Germany Weather past 2 weeks in Bremerhaven, Bremen, Germany

Now
75 °F

Overcast.


Feels Like: 78 °F
Forecast: 64 / 71 °F
Wind: 9 mph from East

Location: Nordholz

Current Time: Jul 24, 2014 at 9:21:18 PM

Latest Report: Jul 24, 2014 at 8:20 PM


Visibility: N/A

Pressure: 30.04 "Hg

Humidity: 57%

Dew point: 59 °F

Location of BremerhavenLocation

Historic Weather in Bremerhaven — Graph

°F

Bremerhaven temperature yesterday

Maximum temperature yesterday: 81 °F (at 3:20 PM)
Minimum temperature yesterday: 61 °F (at 4:20 AM)
Average temperature yesterday: 72 °F

Past Weeks' High & Low Weather Summary

 TemperatureHumidityPressure
High90 °F (Jul 19, 3:20 PM)100% (Jul 14, 12:20 AM)30.21 "Hg (Jul 14, 12:20 AM)
Low52 °F (Jul 17, 2:20 AM)33% (Jul 19, 5:20 PM)29.65 "Hg (Jul 13, 7:20 PM)
Average69 °F71%29.98 "Hg
* Reported Jul 9 7:20 PM — Jul 24 7:20 PM, Bremerhaven, Weather by CustomWeather, © 2014

Note: Actual official high and low records may vary slightly from our data, if they occured in-between our weather recording intervals... More about our weather records

Advertising

Bremerhaven weather history for previous 24 hours

 ConditionsComfort  
Time TempWeatherWind HumidityBarometerVisibility
7:20 PM
Jul 24
77 °FOvercast.7 mph54%30.04 "HgN/A
6:20 PM77 °FMostly cloudy.3 mph54%30.04 "HgN/A
5:20 PM79 °FMore clouds than sun.6 mph48%30.04 "HgN/A
4:20 PM79 °FScattered showers. Broken clouds.6 mph48%30.07 "HgN/A
3:20 PM79 °FScattered showers. Broken clouds.17 mph45%30.07 "HgN/A
2:20 PM79 °FPartly sunny.15 mph45%30.07 "HgN/A
1:20 PM79 °FPartly sunny.17 mph48%30.09 "HgN/A
12:20 PM79 °FPartly sunny.14 mph45%30.09 "HgN/A
11:20 AM75 °FPassing clouds.14 mph54%30.09 "HgN/A
10:20 AM75 °FPassing clouds.15 mph57%30.09 "HgN/A
9:20 AM72 °FPassing clouds.14 mph65%30.09 "HgN/A
8:20 AM70 °FPassing clouds.13 mph73%30.09 "HgN/A
7:20 AM66 °FPassing clouds.14 mph78%30.09 "HgN/A
6:20 AM63 °FPassing clouds.10 mph83%30.09 "HgN/A
5:20 AM61 °FPassing clouds.8 mph88%30.09 "HgN/A
4:20 AM61 °FPassing clouds.7 mph83%30.09 "HgN/A
3:20 AM61 °FPassing clouds.6 mph83%30.12 "HgN/A
2:20 AM63 °FPassing clouds.7 mph77%30.12 "HgN/A
1:20 AM64 °FMild.9 mph68%30.12 "HgN/A
12:20 AM64 °FPassing clouds.6 mph68%30.12 "HgN/A
11:20 PM
Jul 23
64 °FPassing clouds.7 mph64%30.12 "HgN/A
10:20 PM66 °FPassing clouds.6 mph64%30.12 "HgN/A
9:20 PM70 °FPassing clouds.8 mph60%30.12 "HgN/A
Weather by CustomWeather, © 2014

See weather overviewHow to use our weather pages